Theta_e
316 316 316 317 317 318 318 319 319 319 319 320 321 322 322 322 322 323 323 324 324 325 324 325 326 326 326 327 328 327 325 314 306 307 309 313 322 335 337 340 339 340 336 310 304 302 300 297 299 299 300 301 302 301 303 306 301 295 290 284 285 286 287 289 290 289 290 292 293 296 294 294 294 296 299 298 297 296 296 298 299 301 300 300 301 303 305 305
315 315 315 316 316 317 318 318 318 318 319 320 320 321 321 322 322 322 323 323 324 324 324 325 326 326 326 326 327 327 319 312 307 304 306 318 332 335 339 339 338 338 329 305 303 300 300 299 298 298 298 298 302 301 304 303 298 291 287 284 286 285 291 291 292 291 293 293 293 294 293 294 295 295 298 296 294 295 295 296 297 297 299 301 302 303 304 305
314 315 315 315 316 316 317 317 317 318 319 320 320 320 321 321 321 322 323 323 323 324 324 325 326 325 326 326 325 325 318 315 307 301 304 333 335 338 339 337 335 332 308 308 306 305 302 301 300 300 297 299 296 300 299 299 300 294 287 286 287 288 294 293 293 295 294 294 294 294 295 294 297 296 300 296 292 293 293 295 296 296 297 299 300 301 302 303
314 314 314 315 315 316 316 317 318 319 319 319 320 320 320 320 321 322 322 323 323 324 324 324 325 325 325 326 327 319 313 305 303 303 313 334 336 338 337 337 334 323 310 309 307 307 302 302 299 301 299 294 296 295 296 298 293 295 289 286 291 291 292 296 294 295 294 294 294 294 295 296 296 294 297 293 294 293 293 295 296 296 297 298 299 300 301 302
315 314 314 314 315 316 316 316 317 318 318 319 320 320 319 320 321 322 322 322 323 323 324 324 325 326 325 326 325 315 306 297 303 307 315 334 336 335 336 336 333 312 309 307 306 303 302 301 300 298 298 296 295 292 295 295 296 291 293 290 291 291 294 295 294 294 294 293 293 293 295 295 298 297 294 293 293 289 292 296 295 298 299 299 299 299 300 300
315 315 314 314 315 315 315 316 317 317 318 319 319 320 320 320 321 321 322 322 323 323 324 324 325 325 325 325 313 315 301 289 304 308 330 332 334 334 334 333 332 314 308 304 305 303 302 301 298 296 294 293 294 293 295 296 298 293 293 293 293 293 294 295 295 295 294 295 293 293 295 296 295 296 294 294 294 293 296 297 297 299 300 300 300 300 299 299
314 314 314 314 314 314 314 315 316 317 317 318 319 319 320 320 321 321 321 322 323 323 324 324 325 325 325 322 311 308 304 303 310 314 326 331 330 332 332 326 320 306 305 304 303 303 300 297 297 298 292 292 292 293 297 295 293 291 292 293 297 294 296 295 297 294 292 294 295 295 296 297 295 296 296 295 296 297 296 297 298 298 299 300 298 299 300 299
314 314 314 314 313 313 314 314 315 316 317 317 318 319 320 320 320 320 321 322 322 323 324 324 325 325 323 311 311 300 301 303 309 316 325 327 323 319 315 310 306 307 305 304 304 302 299 298 297 296 292 292 296 295 297 295 294 293 295 294 296 296 296 295 294 293 293 295 294 296 296 295 294 295 295 295 296 296 296 297 298 298 298 298 298 298 298 299
315 314 314 313 313 313 313 313 314 315 316 317 318 319 319 320 320 320 321 322 322 323 323 324 324 324 323 312 305 299 297 309 317 318 318 315 312 306 307 311 307 307 305 303 302 304 303 298 298 299 296 295 296 296 295 295 291 295 295 294 294 295 296 295 296 294 294 297 295 297 294 293 293 295 295 295 295 296 296 297 297 297 296 296 296 297 297 298
315 315 314 314 314 314 314 313 313 314 316 317 317 318 319 320 319 320 321 322 322 322 323 324 324 323 316 307 297 293 302 314 318 319 317 311 307 309 307 308 307 305 307 304 302 301 301 301 301 302 298 296 297 296 295 294 293 294 293 294 296 296 294 295 296 295 294 297 294 295 293 295 294 296 291 295 296 296 296 295 295 296 295 296 296 296 296 297
315 315 315 315 316 315 315 315 314 315 316 316 317 318 318 319 319 320 321 322 322 323 324 324 323 319 310 303 298 294 311 318 317 311 309 309 309 308 309 308 308 306 304 304 304 305 304 302 302 301 300 296 296 294 294 296 295 295 295 295 295 292 293 293 294 294 294 297 293 295 293 293 293 294 292 294 296 296 296 294 294 294 294 295 295 295 295 295
316 316 316 316 316 317 316 316 316 316 316 316 317 317 317 318 319 319 321 322 322 323 324 324 322 313 311 300 296 297 312 313 312 309 311 311 311 310 308 308 307 308 306 305 306 306 305 306 302 300 296 300 294 295 296 296 296 295 296 295 291 291 295 294 295 294 294 295 293 294 294 292 292 292 292 295 296 296 295 294 294 294 294 294 294 294 294 294
316 316 316 317 317 317 317 317 317 316 316 316 316 317 317 318 319 320 321 321 322 323 324 324 319 313 305 299 299 307 309 310 310 310 309 309 308 309 309 309 307 305 306 305 305 307 306 302 300 299 300 295 294 294 297 297 295 297 294 293 292 290 291 295 295 293 294 295 293 295 287 288 290 293 293 295 295 295 294 293 293 293 293 293 292 293 293 294
317 316 316 317 317 317 318 319 317 317 317 316 316 317 318 318 318 320 321 321 323 323 324 324 312 310 303 298 308 310 312 315 312 311 310 311 308 308 308 307 308 306 308 306 306 304 305 302 301 300 302 298 297 301 296 295 294 294 293 291 289 288 287 293 293 292 294 294 293 295 288 288 290 292 293 295 295 295 294 293 293 293 293 292 292 292 293 293
318 317 316 316 318 319 319 318 318 318 317 317 317 317 317 318 319 320 322 322 322 323 324 320 310 307 298 300 310 314 327 313 311 309 310 310 307 307 307 306 306 304 305 304 306 305 304 305 303 299 297 297 299 297 290 290 290 291 290 286 284 287 285 291 293 293 294 294 294 295 287 291 294 294 293 295 294 294 294 293 293 293 293 292 292 292 291 292
318 318 317 316 317 319 319 319 318 318 318 317 317 317 317 318 319 321 322 322 324 323 313 315 311 300 296 295 306 321 311 308 308 309 308 311 307 307 306 304 306 304 303 303 304 304 302 299 298 296 296 297 292 288 287 288 289 286 290 283 286 286 286 290 294 293 294 292 294 294 288 288 292 291 293 294 294 293 293 293 293 293 293 293 292 292 291 292
318 318 318 318 318 319 320 319 318 318 317 317 316 316 317 318 320 321 322 323 318 317 312 308 307 305 296 302 313 306 304 306 310 310 310 310 310 306 305 305 303 303 304 304 303 303 300 300 297 298 294 291 290 289 286 283 283 286 285 288 285 288 287 287 290 293 293 293 290 291 290 290 292 290 292 293 294 293 292 293 293 293 293 293 292 291 291 291
318 318 318 318 318 319 319 319 318 318 318 317 316 316 316 319 322 320 319 317 312 310 312 315 308 299 297 303 298 299 305 308 309 309 309 309 306 304 302 302 301 300 300 300 300 299 300 297 295 292 292 293 292 288 286 283 287 282 288 286 287 288 288 289 290 293 292 293 290 290 288 291 293 292 291 293 293 293 293 294 294 293 293 293 292 292 291 291
319 318 318 318 319 319 320 320 319 319 318 318 318 320 321 320 317 312 310 312 304 297 295 297 296 289 287 296 303 308 309 310 310 309 307 308 308 306 304 303 301 300 297 296 296 298 295 293 293 291 289 289 291 292 291 290 288 288 288 287 284 288 287 289 290 291 294 290 290 288 289 291 293 294 292 291 292 293 294 292 292 293 293 292 292 291 291 290
319 319 318 319 319 320 320 320 320 319 318 314 314 314 306 305 303 302 306 307 302 298 297 299 302 299 302 302 304 307 311 308 307 306 308 309 307 306 303 302 300 298 296 295 295 297 295 290 288 288 291 293 293 293 294 293 291 290 288 287 287 288 288 290 292 293 292 292 289 291 291 290 291 292 293 292 292 292 292 291 292 292 293 292 292 291 291 290
319 319 319 319 320 320 320 320 320 319 318 313 314 308 295 300 291 290 299 303 305 306 303 302 304 300 302 304 304 306 305 304 305 305 307 309 304 304 300 300 296 294 293 294 295 297 297 290 289 293 295 294 294 294 293 293 292 291 290 288 288 286 288 290 294 293 292 292 286 288 289 289 291 293 294 293 290 291 292 292 292 292 293 293 292 291 290 290
318 319 319 319 320 320 321 321 320 319 319 313 312 308 307 303 302 305 302 298 302 306 306 303 303 302 304 304 306 306 303 300 303 305 308 307 302 300 298 296 292 295 293 294 293 292 290 290 293 295 294 294 294 292 292 292 291 290 290 288 287 288 288 291 291 291 292 292 289 287 288 291 292 293 294 293 293 294 294 294 294 293 292 292 292 291 290 290
318 318 318 319 319 321 321 320 319 319 310 308 308 309 307 309 308 306 305 298 297 302 304 303 301 302 302 304 306 306 302 298 298 302 304 305 300 299 297 295 293 293 293 293 293 287 288 288 294 295 294 294 293 292 291 291 291 289 288 286 287 287 288 287 288 290 292 291 288 287 288 290 292 293 295 296 295 293 291 293 293 294 294 292 292 292 291 290
318 318 318 318 320 321 321 320 320 316 309 305 307 309 310 308 310 309 303 296 294 297 303 304 304 302 301 302 306 305 301 300 300 301 306 303 300 298 297 296 294 293 292 294 294 292 291 293 295 295 294 295 293 292 290 290 290 287 290 288 287 288 288 290 288 291 289 291 290 290 290 291 292 294 295 294 289 291 292 292 291 291 293 293 292 291 291 290
318 317 317 318 319 321 320 320 314 310 310 308 307 312 314 313 310 309 298 292 291 294 302 304 305 303 304 306 306 304 300 301 300 303 307 304 299 298 296 298 293 292 293 294 292 291 292 294 293 294 292 293 293 291 290 291 287 288 288 291 291 289 291 288 290 291 283 285 286 290 283 279 281 287 291 291 288 289 289 290 290 291 291 291 291 291 290 290
317 317 317 317 320 320 321 312 310 310 308 305 307 308 313 312 311 311 297 288 286 290 297 294 306 301 308 301 304 301 301 298 300 303 307 305 307 301 299 296 297 293 293 292 292 290 293 295 294 292 292 291 291 291 290 292 290 286 288 290 292 291 290 289 289 289 282 282 287 289 286 281 282 288 289 287 287 289 288 288 289 289 290 290 291 290 290 290
318 317 317 318 319 320 312 306 312 310 305 306 310 311 308 311 310 309 293 284 282 293 293 298 298 299 306 302 303 299 290 291 303 303 304 305 304 306 297 294 296 296 296 295 291 290 293 293 293 291 291 290 289 289 291 293 290 285 287 289 290 290 289 288 288 289 284 283 287 286 283 282 286 287 293 291 289 289 289 289 288 289 289 290 290 290 290 289
318 318 317 318 319 319 312 311 309 307 307 310 310 312 311 310 310 306 290 278 278 298 294 294 301 306 305 302 305 300 295 299 297 300 300 303 304 302 299 293 296 295 295 295 287 292 293 291 292 291 290 289 290 292 291 294 290 287 290 290 289 290 288 287 288 284 284 284 283 285 286 284 283 283 286 288 288 290 291 290 290 290 289 289 289 289 289 289
318 318 317 317 319 320 317 311 309 307 310 309 310 313 313 310 306 296 285 276 293 292 307 299 309 304 300 302 299 295 297 296 295 298 300 303 304 300 295 295 294 295 296 297 293 291 294 293 294 295 293 291 290 289 290 294 290 291 289 290 289 287 286 283 282 286 282 280 281 284 287 282 286 283 287 285 286 290 292 294 291 290 290 289 289 288 289 288
318 318 318 318 318 317 315 314 309 309 309 310 312 311 310 306 299 289 279 275 297 290 297 299 299 296 298 297 296 296 296 295 295 298 299 299 300 301 300 300 297 295 294 293 292 290 294 294 294 294 292 292 289 289 288 292 291 292 290 291 288 284 283 280 280 280 281 280 284 285 287 286 282 283 288 287 288 290 291 289 288 290 290 289 289 288 288 288
318 318 318 318 313 315 314 308 312 310 310 312 311 309 307 298 288 283 277 285 293 293 295 294 293 299 296 295 293 296 294 294 296 297 295 299 297 297 298 296 297 289 287 286 288 287 291 291 293 291 293 290 291 290 289 290 291 293 286 283 285 285 280 277 276 278 277 280 281 286 287 287 282 280 283 289 289 288 290 290 288 289 290 290 289 289 288 288
317 318 318 316 317 318 310 308 313 312 312 312 311 307 301 289 291 282 282 292 286 288 292 289 293 295 296 298 296 295 294 294 295 296 295 293 292 294 294 292 292 285 284 287 287 287 287 289 289 292 293 294 288 290 289 287 290 290 288 289 285 278 273 275 273 276 277 280 281 282 285 282 285 289 285 287 290 289 289 292 291 290 290 290 289 289 288 288
317 317 317 317 316 315 315 315 315 313 311 311 308 303 294 287 282 289 287 288 283 293 291 294 294 295 296 295 293 293 294 293 294 295 295 293 292 292 292 292 291 289 283 284 287 286 286 283 288 290 292 293 295 291 284 285 288 288 288 285 283 275 275 274 270 269 272 276 279 280 283 283 282 286 293 296 297 290 287 288 289 290 290 290 289 288 288 287
317 317 314 315 316 316 317 315 315 313 311 309 304 297 290 285 284 296 291 290 289 291 292 290 293 293 295 293 292 295 292 292 294 293 295 291 290 289 291 292 291 291 284 283 285 285 280 282 288 290 288 292 295 296 294 291 288 290 289 291 287 283 275 275 275 276 276 274 276 278 280 277 281 285 287 286 286 285 286 287 287 288 289 289 288 287 287 286
317 316 316 316 315 317 317 315 314 314 311 307 300 294 286 285 289 288 290 291 289 292 291 293 293 292 290 289 288 294 293 289 292 292 290 290 288 288 289 292 293 290 285 287 285 281 287 286 285 293 290 293 294 293 291 288 288 286 286 287 284 286 282 283 275 273 273 272 273 274 280 280 285 285 284 284 284 286 285 286 287 286 286 287 286 286 287 287
315 314 315 312 312 315 317 316 314 314 310 303 295 289 286 290 287 292 289 296 292 291 290 292 287 288 287 288 288 292 294 290 291 290 287 289 287 289 290 290 293 295 292 289 286 282 283 282 286 288 291 294 294 292 292 294 287 286 288 287 289 288 288 279 277 279 275 273 277 274 279 281 283 288 285 286 288 287 285 286 285 285 285 286 286 286 286 286
312 314 308 311 312 316 317 316 314 312 309 301 293 286 292 294 296 293 297 296 294 295 292 289 288 289 286 287 287 289 291 290 288 288 286 287 289 290 288 292 295 295 297 295 286 288 285 282 287 287 288 289 287 289 289 289 290 287 283 288 289 289 287 284 281 276 273 275 276 277 280 280 281 282 282 285 285 286 285 285 285 284 284 286 286 286 286 286
312 311 310 310 313 317 317 316 314 310 305 297 290 292 296 293 298 297 297 295 294 297 292 290 287 293 286 288 287 288 290 292 288 288 285 289 287 294 293 290 294 296 298 297 292 289 290 284 285 285 286 288 288 292 290 291 290 290 287 289 290 284 283 283 279 279 276 276 274 275 278 281 283 285 281 284 284 287 287 284 283 285 284 286 286 286 285 285
311 309 303 311 317 318 316 316 312 306 299 293 289 289 295 296 300 297 297 298 297 295 293 293 290 291 291 288 289 290 292 288 288 287 286 286 286 291 294 296 291 296 298 298 294 289 289 285 283 285 286 287 287 290 284 285 290 288 289 289 286 284 279 280 283 275 278 273 271 274 275 279 283 285 285 288 288 289 288 285 286 287 287 287 287 287 286 286
306 302 302 313 317 318 316 313 307 303 297 289 290 290 297 294 299 299 297 299 295 295 293 293 293 290 291 291 291 289 291 290 290 289 289 287 290 292 293 296 293 294 297 299 296 295 287 287 279 284 284 287 284 285 287 289 286 285 285 284 286 284 285 283 282 280 279 269 270 271 275 278 280 287 288 290 290 290 289 289 289 288 288 288 288 288 287 287
306 300 300 313 316 317 314 307 299 295 294 296 295 293 295 295 298 299 301 300 298 299 295 295 294 292 292 290 290 292 290 290 290 289 290 288 290 286 293 295 295 293 296 296 294 291 288 286 284 283 283 282 284 286 289 289 291 290 290 287 289 285 283 281 280 281 275 276 275 269 279 280 282 286 291 291 292 291 291 291 291 290 288 288 288 288 288 287
300 291 296 312 316 315 306 296 296 299 296 291 290 295 293 302 296 298 298 300 300 296 298 295 295 295 293 293 294 292 291 290 290 290 290 290 292 291 290 296 296 297 295 290 293 294 293 284 282 279 282 286 287 289 288 289 288 288 289 287 290 290 287 281 279 277 278 281 276 273 271 284 284 284 284 286 285 287 290 291 291 289 288 288 289 288 288 288
297 293 306 306 315 312 303 295 297 296 294 294 298 297 297 297 298 298 297 299 298 298 296 296 295 295 295 295 292 293 294 289 292 290 291 291 292 294 292 295 297 297 297 291 295 292 294 288 285 282 284 282 285 287 288 287 290 288 287 285 286 287 288 286 283 281 284 277 278 275 276 282 284 282 281 278 278 280 283 286 288 288 289 289 288 287 287 287
298 297 299 307 313 311 300 290 290 291 293 296 296 295 298 297 297 296 296 299 298 297 296 295 295 298 296 296 293 292 295 288 293 293 290 290 289 291 290 293 297 294 296 293 294 296 291 288 288 282 280 282 284 287 286 288 288 285 287 289 287 288 289 285 285 281 280 281 282 281 279 283 285 283 283 283 283 284 286 286 288 288 288 289 288 288 287 287
298 300 299 302 308 306 296 298 294 291 291 290 292 291 293 294 297 299 299 298 301 299 297 296 298 297 296 296 296 296 296 295 290 294 293 286 291 290 291 293 296 296 297 296 298 301 292 287 288 283 280 278 277 279 281 283 286 286 282 283 288 289 287 286 284 282 281 282 285 283 284 283 282 284 286 284 283 285 286 286 286 288 289 289 288 288 287 287
295 288 296 298 303 301 300 299 297 294 291 290 288 290 294 291 295 298 300 299 301 301 300 296 296 299 296 295 293 293 293 296 292 288 291 288 287 288 289 291 294 297 295 296 297 299 289 287 290 289 287 285 286 285 287 288 285 284 283 287 287 289 290 289 288 285 283 282 284 287 288 285 285 287 285 285 281 286 287 284 286 287 288 288 288 289 288 288
297 291 291 288 298 296 294 297 295 296 290 293 286 290 288 291 293 295 300 295 300 300 299 298 296 296 293 295 293 293 294 293 292 290 291 290 286 287 289 290 290 291 294 295 296 293 286 288 289 289 288 289 283 284 286 291 287 288 285 285 287 287 288 287 286 285 287 284 283 288 287 287 289 286 287 285 285 286 287 287 287 287 287 288 289 288 289 287
290 293 296 297 292 287 289 289 293 294 296 294 289 292 289 289 291 290 296 298 299 301 296 295 297 298 297 296 296 290 292 292 292 290 291 289 287 288 289 289 290 291 293 294 294 293 288 288 289 288 289 290 287 284 286 287 288 287 287 286 285 287 287 286 287 289 287 286 285 288 288 288 290 290 290 287 289 290 290 289 289 289 288 287 287 287 287 287
294 291 291 296 291 292 293 293 294 293 293 294 291 292 288 289 288 293 293 294 296 296 298 291 294 296 297 298 295 291 292 288 288 292 289 287 288 287 287 288 289 290 291 290 292 288 290 288 287 288 289 289 289 287 286 288 286 285 285 286 287 287 287 287 288 289 289 288 290 290 287 288 292 292 289 290 290 291 289 287 288 288 288 288 288 287 287 286
288 291 288 291 291 289 290 294 294 293 289 293 287 289 290 290 289 292 295 295 290 293 299 294 295 296 297 296 296 292 293 295 293 290 292 290 288 288 289 290 286 286 288 289 291 289 291 288 290 287 286 287 288 287 286 286 286 286 287 286 286 287 287 288 289 290 290 289 290 289 288 288 289 288 291 292 288 287 286 287 288 289 289 288 288 288 288 288
293 292 294 288 286 286 289 290 293 292 289 290 287 290 290 291 290 294 294 298 295 292 295 294 296 295 295 296 295 295 298 297 295 294 295 293 289 292 291 288 291 287 287 288 288 289 289 286 287 287 285 286 286 286 286 286 286 286 286 287 286 284 284 287 286 289 288 287 288 287 287 287 290 288 288 288 287 288 288 289 290 289 289 288 288 288 288 288
293 294 294 292 285 290 288 287 291 292 287 291 290 290 291 290 293 294 290 296 298 299 298 298 297 296 293 294 294 296 300 300 298 295 295 298 297 295 296 292 293 290 287 289 288 288 288 287 285 286 284 284 285 287 285 285 285 283 285 287 287 287 288 289 289 290 290 291 287 285 287 292 293 289 288 286 288 288 289 289 289 289 289 289 289 289 290 289
Wind_Speed
2 1 1 1 1 1 1 2 3 3 3 4 4 5 6 6 7 8 8 10 11 11 11 12 12 12 12 13 14 14 14 1 2 0 1 2 1 2 5 5 7 7 3 2 6 7 3 5 5 8 5 3 2 1 2 2 1 2 3 5 4 2 2 3 4 7 1 6 4 1 2 4 1 1 0 1 8 5 3 6 2 6 6 3 1 1 3 3
2 1 1 0 0 1 1 2 2 2 2 2 4 4 6 6 7 8 9 9 11 11 11 11 12 12 12 13 14 13 8 2 2 2 0 1 2 4 5 5 4 4 3 2 5 3 3 4 5 5 5 1 2 0 1 1 2 4 3 5 3 3 1 2 2 5 3 3 5 2 0 4 3 3 1 1 1 1 3 3 2 4 3 4 6 5 7 7
3 2 2 1 1 1 1 1 1 1 1 3 3 4 5 6 7 8 9 9 10 11 11 11 12 13 13 13 14 12 5 1 1 1 1 3 4 5 5 4 3 2 2 0 1 1 0 2 2 2 3 0 4 1 4 2 1 0 4 3 1 5 0 0 2 2 2 6 4 3 1 3 1 1 0 1 3 0 5 5 0 1 3 2 1 5 4 7
3 3 3 3 1 2 2 2 2 1 2 2 3 4 5 6 7 8 9 10 10 11 11 12 12 13 13 13 12 7 0 2 0 2 1 4 3 4 4 4 2 2 2 1 2 0 1 0 1 1 1 3 2 2 3 3 3 1 4 2 3 4 3 0 1 2 3 5 4 3 0 1 1 3 1 2 1 2 3 6 7 10 8 6 3 3 4 6
4 4 3 3 4 2 2 3 3 2 2 2 3 4 5 6 7 8 9 10 10 11 11 12 13 13 14 13 11 1 3 3 2 1 1 3 2 4 5 4 2 0 0 1 2 1 2 3 0 3 2 0 3 2 1 2 1 3 1 2 3 2 1 2 3 4 4 2 5 1 3 3 0 1 2 5 3 4 4 4 5 7 9 9 6 4 4 5
5 4 4 4 4 3 3 3 4 3 3 3 4 5 5 6 7 8 9 9 10 11 12 12 13 14 13 13 1 1 2 0 2 0 1 3 3 4 5 4 3 1 0 3 2 2 7 4 3 1 2 2 1 2 2 0 0 2 1 0 1 2 2 2 1 3 4 2 3 2 2 1 1 1 2 4 3 1 2 3 6 8 7 6 5 5 6 5
4 4 4 4 4 4 4 4 4 4 3 3 4 4 5 6 7 8 9 10 11 11 12 12 12 13 15 3 0 3 1 2 1 3 2 3 4 4 5 5 2 4 5 4 5 3 2 3 3 0 2 3 0 2 0 1 5 6 2 0 1 1 4 5 2 4 2 8 2 2 1 1 1 1 0 2 1 1 2 4 7 7 7 6 6 4 7 6
5 5 4 4 4 4 5 5 5 4 5 4 4 4 5 6 7 8 9 10 11 11 11 12 12 12 11 1 1 1 1 2 2 2 3 3 5 5 6 2 6 3 5 2 1 2 1 4 2 1 4 3 1 2 0 3 5 2 1 1 1 0 0 1 3 2 2 2 2 3 1 3 4 1 0 1 3 3 4 5 7 7 6 5 7 6 5 6
6 5 5 4 3 5 5 5 5 5 5 6 5 5 5 6 7 9 9 10 10 11 11 11 12 12 5 2 2 1 2 1 4 1 2 3 6 7 7 1 5 3 0 2 3 2 2 1 1 1 1 0 0 3 1 1 2 1 1 0 1 1 0 1 0 2 4 1 2 0 4 4 6 1 2 3 5 4 4 6 6 7 7 5 5 5 5 6
7 6 5 4 4 3 3 4 5 6 6 6 6 6 6 7 8 8 10 10 10 10 10 11 11 11 2 2 2 0 1 3 3 1 2 3 6 6 8 2 3 4 1 4 3 4 2 1 2 1 4 2 1 1 1 2 1 2 2 1 1 1 2 1 6 5 3 1 1 3 2 1 3 3 6 1 5 4 6 6 4 7 6 5 4 4 4 6
8 7 6 6 4 4 4 3 4 5 6 6 7 7 7 8 8 9 9 9 9 9 10 9 9 6 1 1 2 4 1 2 0 0 4 5 6 5 1 4 1 2 4 3 3 0 1 2 2 1 2 1 1 2 0 0 2 2 2 0 1 5 2 3 1 3 2 2 4 5 4 1 2 1 6 6 6 6 9 5 5 5 5 5 4 4 3 4
9 8 8 7 7 7 5 4 4 5 6 7 7 8 8 8 9 9 10 9 8 8 9 8 7 1 1 4 3 2 3 2 4 1 1 2 2 3 4 1 1 2 2 1 0 0 2 0 3 1 1 0 1 0 0 0 0 0 1 2 5 6 4 2 6 4 5 3 5 4 1 4 1 5 2 6 7 6 8 7 5 5 5 4 4 3 3 4
9 9 9 8 7 8 5 6 5 6 7 8 8 8 9 9 9 10 10 9 7 8 7 7 4 1 1 1 6 5 3 3 1 4 3 3 3 1 1 0 1 2 2 2 1 1 1 2 3 4 0 2 2 0 1 2 1 1 3 1 5 5 6 4 0 2 7 2 6 4 2 7 7 7 1 6 9 6 6 6 5 5 5 4 4 4 3 2
9 9 9 8 7 7 8 7 5 5 6 8 9 8 8 9 10 10 10 10 9 7 6 7 1 1 2 3 2 3 3 1 2 4 1 1 4 2 3 3 2 1 1 3 1 1 0 0 4 4 1 2 0 0 2 2 3 1 1 2 1 3 4 3 0 3 8 1 6 3 3 7 7 6 3 6 8 12 10 7 6 6 5 4 4 4 4 2
10 10 9 9 6 5 6 7 6 6 7 8 8 9 9 9 10 11 11 9 7 7 6 3 1 2 1 5 1 5 4 1 1 2 2 1 3 1 0 2 3 4 0 2 0 0 1 3 3 1 0 1 1 1 2 2 3 1 2 3 3 3 4 8 1 8 8 0 1 3 2 9 9 7 5 7 6 7 8 8 7 7 6 6 4 5 4 3
9 8 9 9 8 5 7 8 6 7 7 8 8 8 9 11 11 12 11 8 9 6 1 1 3 4 3 3 0 3 1 2 3 3 1 2 2 1 2 2 0 3 2 2 2 1 3 5 4 2 1 2 6 6 5 2 2 4 2 3 2 1 5 6 1 1 1 3 0 5 6 3 4 3 5 5 7 6 7 7 8 8 8 7 5 4 4 4
10 10 8 8 8 7 6 6 7 7 7 7 7 7 9 11 11 12 12 10 3 1 1 1 1 1 1 1 1 1 3 3 2 1 1 0 3 5 4 2 1 1 2 2 6 2 5 3 2 2 3 4 3 5 2 2 4 3 1 3 4 2 1 2 4 1 0 4 4 2 2 6 4 2 3 5 7 6 6 9 9 8 7 6 5 5 5 4
12 10 9 9 10 8 7 8 7 8 7 6 5 5 7 10 11 10 2 2 1 1 1 1 2 1 7 2 2 5 1 3 2 3 2 1 4 4 3 1 1 3 2 2 4 1 2 0 4 4 1 1 2 3 5 7 7 4 2 1 5 1 3 4 0 2 4 0 4 2 5 10 11 6 4 8 5 7 10 10 10 9 7 7 7 6 6 5
13 12 11 10 10 9 8 8 10 8 6 5 7 9 11 10 5 1 2 1 2 2 1 3 4 5 4 7 2 3 2 4 3 4 3 2 1 2 3 3 4 4 1 2 2 2 2 3 5 3 4 3 7 9 10 9 6 4 8 6 3 3 3 2 6 3 8 5 5 5 8 11 13 12 6 5 7 10 12 5 4 6 6 6 7 6 6 5
13 13 12 11 10 9 9 10 10 8 4 1 3 2 1 1 1 0 1 2 4 7 2 5 6 0 1 2 4 1 0 3 5 2 1 1 4 1 2 2 3 5 4 4 0 2 2 4 5 7 10 11 7 9 10 6 6 3 3 3 4 5 5 3 3 3 2 1 7 9 9 8 9 9 9 5 5 7 7 7 8 8 8 9 8 8 7 7
13 12 12 11 10 9 11 12 10 7 4 1 1 0 3 6 6 5 3 6 5 4 1 2 9 3 0 3 2 7 5 1 1 1 3 1 3 7 2 2 2 0 2 3 5 1 3 4 8 11 11 9 11 8 5 1 1 3 2 3 5 2 6 5 1 0 0 4 3 5 6 9 12 10 9 4 5 11 13 12 10 10 10 10 10 8 8 6
14 13 11 11 10 9 11 11 10 6 5 2 0 3 2 1 0 1 2 3 5 13 9 3 3 4 1 3 3 2 5 3 0 1 1 2 4 7 2 3 4 8 1 3 3 2 4 10 11 12 2 2 1 4 5 7 5 2 4 4 2 7 4 7 3 2 1 2 8 4 5 9 9 9 8 7 10 9 11 14 15 14 12 10 9 8 8 6
14 13 12 11 10 9 9 11 8 6 2 2 3 3 3 2 2 2 0 1 4 2 8 6 4 7 4 3 2 1 3 4 7 4 5 3 3 4 6 4 4 3 2 5 8 4 4 6 15 8 4 4 4 3 4 1 2 5 1 2 7 3 2 6 2 1 0 2 2 1 5 8 6 7 11 13 9 6 5 9 10 11 14 14 15 15 13 10
15 14 13 12 11 10 9 11 7 4 2 3 3 5 2 1 4 5 1 2 3 3 5 7 10 4 8 5 5 6 5 4 4 8 3 6 10 3 5 7 6 4 8 10 10 11 12 4 2 6 8 9 6 3 4 4 7 3 6 5 4 3 5 6 5 2 3 2 1 5 9 9 7 13 11 7 2 3 4 3 6 5 5 5 4 5 9 14
16 15 14 13 13 11 12 9 4 4 3 2 5 8 8 6 3 4 1 4 1 4 2 1 4 3 5 3 3 7 3 1 5 2 6 9 6 3 4 2 4 7 7 9 5 6 10 6 3 7 5 5 5 3 6 7 7 4 5 8 8 6 6 3 1 1 4 3 1 1 6 5 4 6 12 7 2 3 2 3 6 6 6 8 10 10 6 5
17 16 15 14 13 14 11 6 4 5 5 5 4 3 8 5 2 1 2 2 6 3 3 6 5 6 5 3 5 4 3 6 2 3 9 6 2 4 2 2 4 9 7 4 7 4 7 3 4 6 6 5 5 5 4 8 8 3 6 8 7 6 4 2 1 2 3 5 2 1 7 10 2 4 6 5 4 8 4 4 5 5 7 8 9 9 10 10
17 16 16 16 16 14 9 6 4 9 3 7 4 5 1 4 3 0 2 3 7 5 8 2 2 2 1 6 9 4 4 7 0 3 4 2 8 0 5 5 1 1 3 3 1 7 3 6 4 2 4 6 5 5 6 9 6 5 2 4 5 4 4 4 4 7 6 0 4 1 2 4 14 6 8 7 6 7 6 8 6 7 6 8 7 8 9 9
17 17 17 17 18 17 1 5 9 8 6 1 1 6 4 5 4 1 3 0 6 4 2 2 2 2 1 4 11 10 1 4 4 4 1 2 1 1 2 7 10 9 4 5 11 1 6 5 7 6 4 4 8 7 3 8 6 3 0 6 4 5 4 3 3 2 1 2 8 1 1 2 9 4 3 2 2 9 14 12 11 10 8 7 7 8 9 9
18 18 18 18 17 17 5 5 7 9 4 1 4 6 6 5 2 5 4 4 1 2 2 4 4 2 2 5 2 2 2 3 2 1 2 2 3 2 5 4 3 4 4 9 11 1 1 5 9 11 9 9 5 0 5 10 5 1 5 7 7 7 6 4 3 2 2 1 9 7 5 4 17 5 3 3 2 10 14 13 8 11 12 10 9 7 7 7
20 19 19 19 12 11 8 2 6 3 3 3 6 7 7 5 2 2 3 7 1 3 2 1 2 6 5 13 4 2 3 1 2 1 1 3 1 2 1 2 3 2 4 2 1 5 1 3 3 4 7 5 5 1 2 5 3 7 4 8 6 8 4 3 6 2 3 7 8 10 10 7 11 2 8 6 9 8 4 1 3 7 7 7 6 9 9 9
21 21 21 20 14 8 6 7 8 3 4 6 7 8 6 3 3 4 8 6 3 1 2 1 2 3 12 13 7 2 3 1 1 4 3 0 0 3 0 3 3 4 2 3 3 3 1 2 1 1 3 4 3 4 5 1 4 8 2 4 5 2 6 3 4 4 1 9 4 11 12 11 12 5 5 7 4 3 3 4 5 9 13 13 11 10 10 10
22 22 23 17 9 7 14 12 10 6 6 8 8 8 7 6 4 8 8 4 2 6 9 4 0 5 12 7 8 12 10 1 3 6 10 8 7 10 10 11 7 4 5 7 8 2 3 3 2 2 3 9 3 6 4 4 1 6 7 7 7 3 5 3 3 3 6 9 1 1 3 2 18 11 4 4 10 6 6 6 6 10 11 10 9 11 10 9
22 22 24 17 12 10 8 4 10 7 6 6 6 4 7 6 13 13 9 6 4 5 4 4 7 10 12 8 5 3 3 8 3 4 5 0 6 7 2 3 4 6 6 3 7 1 7 1 1 3 2 5 8 10 3 1 5 6 9 8 7 1 2 6 4 2 6 5 5 0 1 8 2 8 12 20 16 2 3 6 4 7 11 13 12 10 10 10
24 22 15 15 14 9 6 7 10 12 10 8 9 4 3 7 13 14 18 10 2 2 6 3 4 2 8 11 6 10 6 2 7 4 6 5 6 8 7 6 5 3 5 2 8 7 4 4 8 8 5 4 9 12 16 8 11 12 5 13 11 9 6 4 7 8 7 5 2 4 4 8 6 6 1 4 5 6 4 4 1 1 4 6 6 7 8 9
24 21 16 12 12 12 10 8 10 13 9 9 9 12 16 16 12 16 15 9 1 2 2 1 8 7 4 3 2 4 3 2 4 5 5 8 9 8 11 12 9 5 2 4 4 2 12 7 5 8 1 7 12 2 5 6 2 1 1 5 4 10 7 9 4 3 1 1 1 2 7 5 6 1 4 2 3 1 3 1 4 4 5 8 8 10 11 10
18 12 15 10 14 14 12 10 12 14 13 11 12 13 19 17 16 11 6 7 2 5 5 6 3 5 6 6 2 7 4 3 5 4 3 6 1 7 5 3 11 14 11 11 5 4 2 5 1 4 4 8 7 3 3 6 8 5 5 8 8 2 5 1 2 0 1 2 10 3 7 7 7 8 5 1 0 2 1 1 3 5 5 6 8 8 8 8
13 13 12 13 16 15 15 13 12 13 12 14 16 16 15 12 4 5 4 12 8 15 8 11 7 9 7 8 6 6 6 4 3 6 6 2 5 8 3 8 8 12 13 8 3 3 8 5 1 4 5 1 0 0 2 4 4 7 5 8 3 2 4 4 5 2 1 5 7 4 11 6 1 12 1 1 2 5 3 2 1 3 5 7 8 8 10 11
12 11 14 18 16 16 17 15 15 12 11 12 17 12 9 15 4 5 2 6 5 11 7 11 3 11 6 10 10 8 4 9 8 6 5 6 6 7 11 3 7 14 17 6 4 2 4 5 1 1 1 3 3 1 3 2 3 6 7 4 8 4 3 2 3 6 3 6 5 5 5 9 10 10 2 3 6 9 8 4 3 6 7 10 8 8 6 5
3 3 5 16 14 18 17 16 16 15 14 13 11 13 7 13 3 1 5 8 6 10 13 12 10 6 6 9 5 6 12 11 9 9 7 5 6 5 13 10 6 12 13 12 6 3 1 6 2 1 2 1 1 4 8 4 1 2 3 3 1 3 1 6 8 2 4 5 1 8 2 10 7 6 11 10 13 12 9 6 11 13 13 11 10 10 11 11
2 2 5 3 16 18 18 18 15 14 12 19 13 14 8 10 6 4 3 9 5 11 10 11 8 5 9 9 12 10 9 6 13 11 8 3 8 1 8 8 6 8 15 17 10 4 3 2 4 1 2 2 3 4 9 13 10 2 3 4 0 0 1 3 1 4 5 4 6 3 9 5 7 8 13 13 14 14 14 16 13 12 12 11 11 12 12 12
1 2 4 3 18 18 16 13 14 19 18 13 13 14 11 10 10 7 7 4 1 2 4 9 11 13 8 6 4 5 7 9 6 7 8 4 9 3 6 10 7 6 5 6 7 3 2 3 8 3 2 5 6 5 5 5 8 11 13 13 14 9 5 5 8 1 2 2 6 3 14 4 5 3 10 11 13 14 14 15 14 13 12 12 11 10 10 11
3 6 5 4 11 18 19 18 10 7 8 15 18 16 7 5 1 8 4 3 1 3 1 1 5 8 8 11 10 9 8 9 10 9 6 11 8 5 3 11 8 11 13 10 14 6 6 3 7 4 7 10 5 0 1 1 2 3 4 5 8 8 6 5 7 5 0 6 4 2 1 13 3 2 4 5 3 6 9 11 13 8 11 12 11 10 9 9
8 13 1 3 9 21 12 15 12 11 10 9 6 4 2 4 10 5 10 7 7 4 2 4 7 8 5 6 5 8 12 6 13 11 5 7 7 11 4 13 10 11 9 1 4 2 7 3 4 0 1 3 2 2 1 1 1 2 3 2 5 13 12 8 2 5 8 2 2 1 6 7 3 1 3 4 4 5 3 5 7 6 8 10 10 8 9 8
6 8 3 3 6 13 16 11 12 11 6 6 12 12 12 4 6 6 11 15 11 5 7 3 1 6 5 4 4 11 12 5 7 13 7 4 5 3 6 9 13 8 11 9 11 9 7 4 7 4 0 2 2 2 1 1 1 4 7 9 6 2 4 2 3 1 1 9 8 8 16 8 2 2 2 1 1 4 6 6 7 8 7 10 10 9 8 7
1 0 3 2 3 9 9 8 14 13 14 10 11 18 12 8 9 14 11 12 10 5 4 7 7 3 4 4 9 6 11 17 4 11 6 4 5 1 3 8 10 10 5 3 10 9 5 4 10 10 13 10 9 13 14 12 13 4 0 4 7 12 9 5 8 4 9 2 15 9 16 4 5 3 2 1 1 4 4 4 5 7 8 11 8 8 8 8
6 6 4 5 5 6 9 1 1 8 13 13 10 13 16 13 7 11 11 11 13 10 8 2 2 4 4 4 5 8 12 11 8 4 9 6 2 1 1 3 7 7 3 5 10 11 4 3 10 14 14 15 9 1 3 7 6 7 7 13 13 12 12 10 6 6 15 3 10 18 13 7 6 5 5 4 1 6 7 4 9 10 9 8 6 10 11 11
2 6 3 4 5 10 10 5 2 6 10 11 9 8 15 19 10 5 12 6 10 12 6 6 3 8 4 8 11 11 11 12 2 6 12 11 2 1 3 3 3 6 6 5 7 6 2 6 12 12 13 12 4 2 5 13 11 11 10 12 13 14 15 15 14 17 7 2 18 10 5 12 18 6 7 5 6 6 6 6 7 6 7 10 10 6 5 6
6 2 3 2 2 6 12 14 13 9 6 13 7 5 12 17 14 9 8 14 4 9 9 3 6 14 16 17 12 8 9 10 8 8 4 3 5 0 2 2 3 0 4 5 3 5 6 9 7 6 16 12 4 4 6 4 7 8 13 14 14 17 16 21 22 16 10 14 21 7 13 16 17 11 12 10 11 13 14 16 12 8 6 5 7 10 11 10
1 1 2 1 3 3 12 7 9 14 12 9 7 8 9 13 15 16 7 11 11 5 13 10 18 20 17 15 10 8 9 7 10 11 6 5 9 6 4 2 2 1 3 4 5 2 4 10 5 8 15 12 10 6 5 8 3 1 8 14 17 19 21 21 19 18 17 16 18 16 8 15 15 10 8 9 13 10 2 2 4 7 10 11 11 10 10 9
2 2 2 2 1 3 2 7 6 9 12 10 7 9 9 14 18 14 6 8 11 16 12 19 19 15 15 14 15 13 15 18 17 14 9 13 7 5 11 8 6 1 0 7 6 3 8 7 10 6 7 14 10 5 6 6 5 9 11 13 17 15 14 17 18 19 17 18 24 16 14 22 7 4 9 8 4 5 3 4 7 8 8 9 10 10 10 11
1 2 0 2 1 3 2 2 7 10 7 9 9 9 8 11 16 14 14 10 15 13 14 21 23 11 11 14 15 19 22 19 16 15 13 17 15 14 11 6 11 12 6 4 3 2 5 3 1 6 7 13 5 10 9 8 6 11 17 21 14 7 7 11 17 16 13 21 18 11 17 21 9 9 1 1 5 7 9 10 7 6 7 7 9 10 10 10
3 0 1 0 1 3 3 2 4 6 12 8 10 11 9 15 14 8 7 7 10 12 13 21 18 14 8 16 20 26 24 14 10 2 6 11 1 3 1 5 12 13 9 10 3 8 8 6 6 7 8 12 3 13 10 6 3 7 24 26 12 15 18 17 16 16 18 17 13 15 19 21 13 6 7 4 7 7 7 9 8 6 8 10 10 10 10 10
Wind_Direction
204 212 113 93 82 41 57 49 40 35 19 13 11 16 15 8 6 6 1 360 357 356 351 347 347 344 341 338 332 335 339 55 31 46 76 231 183 297 301 295 294 298 323 30 13 41 346 9 360 336 15 49 297 50 289 46 69 58 60 117 53 162 100 200 173 190 215 132 221 188 189 112 159 327 29 80 38 89 62 69 359 36 46 67 58 46 59 36
204 225 248 68 39 323 9 22 36 30 11 12 8 6 10 7 2 359 1 357 355 352 348 345 344 344 341 335 335 334 349 37 58 54 244 65 332 308 301 292 298 301 267 36 60 61 56 343 328 15 27 38 316 5 28 320 72 90 106 82 168 201 258 160 198 196 132 182 179 197 152 135 202 140 272 107 19 111 61 15 36 65 42 38 37 31 45 52
213 228 230 245 297 287 303 312 64 357 355 12 1 6 7 2 356 357 356 355 351 348 346 342 344 343 340 334 329 334 347 20 39 4 284 26 324 315 301 292 298 359 58 114 177 128 133 245 273 11 11 86 1 284 34 330 62 175 109 82 237 211 276 239 171 185 230 147 134 133 231 124 212 136 16 196 153 54 160 150 281 173 168 108 28 41 45 62
215 221 228 234 264 278 285 297 313 330 344 347 356 8 1 355 354 354 353 351 348 344 343 346 343 342 337 330 323 320 48 62 222 247 297 311 326 314 306 302 292 66 92 141 168 161 217 122 68 106 19 64 303 52 55 318 72 280 68 157 188 192 100 253 150 141 134 127 156 140 50 72 244 214 128 187 125 265 257 216 163 193 170 160 142 99 76 75
212 220 228 236 230 259 272 281 288 304 317 325 353 355 358 350 352 350 347 346 344 342 345 344 345 341 332 326 320 290 61 57 241 229 281 312 342 317 306 298 320 59 235 256 108 54 68 72 77 40 85 209 356 12 77 319 123 78 74 213 166 121 87 232 223 205 126 153 103 97 120 218 66 81 138 147 187 232 212 221 201 156 153 150 145 134 98 92
216 220 229 233 242 240 268 275 287 293 309 330 347 352 345 343 346 342 343 343 342 343 344 347 344 340 333 327 84 87 86 66 228 268 317 316 336 325 304 311 324 25 196 38 65 1 44 347 64 25 5 68 324 103 291 244 8 98 316 351 205 221 137 218 205 225 136 123 131 148 215 73 86 226 205 169 186 239 258 138 134 133 145 146 128 130 106 106
216 224 227 235 244 259 267 278 282 299 302 315 332 343 335 340 336 340 339 342 342 343 346 345 344 339 333 10 168 87 131 274 28 252 349 345 327 322 318 329 14 36 53 45 17 53 23 56 70 59 87 56 295 107 10 354 10 102 168 308 7 114 144 175 190 137 137 121 203 199 69 163 127 219 137 165 313 219 91 104 108 116 121 129 114 119 125 118
213 222 226 234 243 254 262 274 287 295 296 294 304 321 333 332 336 336 340 339 341 343 344 345 342 337 347 50 37 347 27 258 268 271 287 346 343 330 334 14 33 40 49 69 28 32 66 43 70 124 64 130 216 124 310 49 16 86 73 209 255 6 262 217 177 154 139 205 113 69 109 239 179 195 38 223 176 144 122 107 106 113 109 101 110 118 120 114
216 221 223 235 257 258 263 268 277 289 297 295 293 308 322 330 332 336 335 336 338 341 344 346 340 335 315 81 115 32 281 244 214 321 100 29 347 10 17 312 14 64 122 48 13 133 104 276 56 194 228 106 287 100 328 116 324 154 192 158 9 312 287 154 194 203 187 201 152 84 256 274 245 312 251 176 187 171 125 98 113 109 103 112 123 133 133 128
220 217 222 227 235 264 254 267 278 283 288 294 297 302 309 326 330 332 330 333 335 342 344 346 345 326 17 79 43 62 257 288 305 268 96 62 27 30 39 60 38 47 55 331 41 48 78 211 145 186 125 82 103 110 297 84 223 154 158 169 174 271 345 212 189 228 232 255 174 183 271 273 342 140 278 194 189 152 115 118 114 119 129 138 133 126 125 126
225 218 219 227 228 246 252 268 273 288 288 292 296 298 304 316 323 323 326 326 332 338 346 348 351 5 73 69 123 224 273 46 337 14 83 73 64 66 5 351 76 73 97 31 73 291 127 158 190 94 45 223 89 327 61 228 126 66 164 210 314 332 248 238 290 266 106 273 178 168 237 281 304 94 230 184 186 161 138 145 139 129 143 142 137 125 125 113
226 226 221 224 216 221 242 260 276 285 292 289 294 300 300 307 313 317 320 322 325 335 347 353 12 83 80 71 148 213 347 263 323 24 61 91 98 169 211 171 103 149 132 138 358 277 195 195 127 58 211 137 33 4 49 175 106 200 64 350 307 351 349 248 205 210 157 241 160 153 358 301 227 225 259 177 150 159 146 155 160 151 152 147 137 128 124 138
225 228 230 235 227 217 243 258 289 298 291 290 288 290 296 298 303 310 314 319 321 330 339 355 359 71 89 352 239 244 305 313 332 74 52 68 93 26 24 137 128 141 143 134 179 226 208 148 100 77 187 106 170 163 210 79 334 98 38 116 349 360 327 301 305 142 155 242 145 150 273 268 251 240 295 161 152 141 140 165 175 170 160 159 152 143 134 127
215 227 233 236 239 226 225 249 272 299 300 291 285 284 288 297 297 301 309 310 315 318 335 337 74 50 82 242 270 258 303 293 85 55 143 50 89 326 7 357 76 79 68 109 184 176 139 88 102 114 130 87 186 303 55 344 23 175 278 57 256 19 277 286 313 181 155 177 167 93 190 282 271 276 230 182 163 160 174 182 182 175 174 167 165 151 153 183
211 209 224 237 248 216 210 251 265 294 303 301 286 279 283 290 294 298 304 307 309 315 328 42 33 60 53 266 278 305 281 72 68 249 200 125 119 34 356 8 38 11 27 110 133 191 129 79 71 51 160 272 50 89 355 26 357 39 46 292 323 156 276 301 321 159 162 286 96 105 291 243 269 277 188 185 174 171 177 185 186 183 179 177 170 159 155 160
214 208 209 228 235 227 212 225 249 271 285 295 289 281 282 287 293 295 297 291 297 331 334 86 13 103 96 295 252 345 37 139 217 225 260 136 125 171 179 132 345 4 23 347 40 56 35 91 82 187 137 24 58 92 46 31 330 349 147 265 266 157 258 339 48 344 102 116 340 169 214 328 304 287 190 183 176 184 180 192 193 190 185 179 172 164 158 141
204 200 205 222 237 231 222 216 227 251 272 292 293 284 283 282 289 303 290 279 294 274 83 116 46 77 163 254 72 205 221 231 283 81 169 127 153 157 113 55 33 19 24 20 19 61 351 66 290 27 37 128 138 99 79 1 316 295 16 215 204 190 252 261 302 262 198 134 207 262 217 236 230 313 207 202 191 181 199 204 201 194 187 180 170 167 167 164
200 202 201 216 234 236 221 213 222 241 263 281 277 283 285 285 302 325 349 60 104 113 72 139 143 76 280 47 208 231 180 122 173 171 99 269 126 113 101 107 41 76 44 37 357 90 328 75 31 187 358 44 113 90 140 225 193 213 184 246 285 251 207 233 181 235 127 351 184 227 241 264 271 264 213 210 196 197 216 208 200 193 184 178 179 176 174 174
195 195 205 209 222 229 221 209 222 230 256 284 295 289 276 285 288 210 48 341 97 29 27 223 147 167 209 223 163 72 84 199 106 116 192 139 56 109 68 92 88 110 112 76 260 99 353 61 26 59 192 201 207 175 184 212 160 189 174 184 170 177 226 204 234 264 171 195 224 196 219 240 250 262 240 223 201 206 223 211 200 204 189 181 185 183 178 180
196 192 198 211 216 220 217 217 218 222 244 354 348 324 40 45 21 314 335 11 217 187 184 193 188 313 94 27 145 267 216 60 114 285 211 282 118 97 33 88 35 59 113 184 268 209 112 144 179 194 213 207 199 192 198 197 162 116 102 116 200 193 276 284 276 258 201 134 228 225 231 239 257 248 256 223 205 223 231 218 213 200 193 191 190 187 180 180
194 192 193 208 214 212 220 221 209 212 190 122 319 54 170 178 130 246 215 247 271 288 225 264 200 153 277 147 148 155 126 306 55 204 204 128 105 115 212 71 45 104 256 171 146 266 79 201 235 220 214 191 199 202 215 105 129 161 171 168 264 174 241 239 204 302 300 173 285 249 245 251 250 261 259 248 169 226 216 215 217 203 199 196 186 180 181 174
193 191 190 204 213 213 230 218 196 200 154 144 109 202 291 224 351 239 123 264 252 237 244 224 359 295 11 154 232 156 72 94 358 257 268 137 173 146 258 115 157 196 156 109 42 112 199 211 231 229 204 171 196 182 191 198 218 214 202 231 256 260 249 290 269 287 265 130 259 276 252 252 256 257 260 225 214 227 216 205 206 195 194 191 187 177 165 162
190 189 186 201 208 213 216 184 192 162 103 132 206 200 245 238 332 236 114 127 278 255 209 214 237 229 262 328 224 114 179 172 185 216 202 141 123 212 149 122 187 157 94 146 170 173 240 277 247 230 132 159 228 160 156 201 240 217 195 139 225 238 162 283 293 336 302 159 264 335 298 273 272 264 263 255 226 254 238 212 212 196 189 186 189 182 171 168
192 187 185 200 200 205 193 190 181 147 207 188 226 211 221 89 30 15 119 248 275 283 192 211 199 188 204 159 209 151 178 232 113 199 247 142 161 177 130 180 176 127 189 193 190 183 204 210 254 162 171 174 206 175 142 170 231 244 200 197 216 213 237 189 250 317 331 331 66 308 298 279 227 251 258 259 349 272 272 266 227 213 199 176 128 138 172 170
191 188 182 195 198 183 199 174 190 200 127 184 255 233 254 266 51 4 70 335 337 281 267 6 155 216 199 48 113 161 241 300 219 182 176 156 138 105 221 147 101 211 196 200 207 235 253 264 92 133 167 171 175 211 202 166 222 261 225 193 203 200 216 273 3 21 13 332 329 115 317 290 278 258 249 280 324 261 260 212 224 191 164 154 174 176 165 169
191 189 182 193 189 194 172 182 205 137 142 213 218 226 222 236 249 329 88 90 277 258 27 235 142 251 134 184 125 170 66 239 218 201 156 205 124 147 101 185 158 217 197 150 197 210 215 202 125 161 159 177 179 199 231 164 210 194 267 196 200 183 188 171 168 86 287 252 298 17 208 281 312 247 239 256 240 252 279 237 227 195 188 183 182 173 173 167
191 189 183 193 195 181 164 218 129 122 138 267 214 207 175 159 114 46 95 3 294 187 168 260 132 254 34 184 144 103 179 244 49 72 140 296 183 353 153 200 77 4 147 162 24 261 154 208 176 92 130 164 185 216 242 169 173 235 247 159 154 152 175 208 166 185 232 253 290 67 127 276 290 236 229 217 211 248 261 242 223 215 201 197 183 175 171 170
191 188 186 195 202 187 264 115 136 158 199 203 198 153 129 129 108 79 85 4 268 102 129 236 221 346 78 174 155 163 217 149 116 229 7 293 87 326 183 201 185 177 180 120 223 265 157 189 182 197 180 172 197 207 179 159 156 219 187 135 149 165 180 124 145 179 234 23 282 287 344 335 252 278 334 94 261 259 252 235 215 207 207 197 181 178 175 172
189 188 187 199 206 195 219 153 157 192 229 166 97 125 116 134 118 109 129 201 242 82 312 91 278 62 59 117 144 60 140 353 154 339 306 39 35 140 209 214 177 184 212 182 221 234 318 174 199 181 175 214 215 295 164 158 193 244 133 88 80 75 64 96 93 97 330 52 251 182 171 210 277 196 189 347 206 256 242 242 206 205 197 190 182 178 170 165
189 187 188 197 194 199 210 138 187 220 138 122 124 119 117 109 89 118 72 242 119 228 115 180 149 191 149 154 192 34 117 351 60 71 42 152 250 30 348 149 122 139 227 354 41 207 243 295 189 120 197 195 131 85 160 196 167 132 84 69 31 40 32 22 62 84 38 260 244 178 196 157 277 227 185 157 219 215 273 328 207 190 188 190 187 174 171 167
188 187 190 191 201 188 152 206 196 152 138 128 132 120 114 37 141 144 211 220 46 121 43 162 178 99 151 152 175 261 72 126 114 155 132 55 13 43 118 29 48 57 25 340 299 332 358 359 136 264 97 104 107 84 13 94 143 133 95 122 62 341 16 33 343 38 166 263 156 183 186 182 219 289 276 251 269 219 191 236 215 198 195 188 183 179 173 165
189 188 188 196 194 151 193 201 163 149 149 154 134 144 145 158 335 194 222 63 273 202 164 178 306 156 175 179 165 177 173 86 188 165 165 181 170 173 202 186 153 158 269 211 251 35 286 194 259 339 214 138 119 88 6 25 26 84 96 89 135 248 35 306 30 254 199 241 290 342 140 6 241 238 253 280 273 257 215 227 215 197 202 191 179 175 168 164
192 190 189 196 191 206 204 112 135 145 137 146 133 142 169 152 208 211 240 165 247 132 238 114 169 168 177 159 211 149 38 177 173 185 122 65 150 228 291 178 213 144 208 216 206 112 270 291 345 236 352 240 146 160 153 75 220 128 143 150 139 156 207 248 265 266 299 299 269 276 172 251 312 288 239 248 254 283 258 259 238 191 190 184 178 170 164 168
193 190 191 196 199 204 182 154 151 150 151 146 140 110 36 195 223 206 213 209 204 357 93 104 114 60 153 172 204 159 180 248 157 201 169 164 162 204 237 250 182 238 86 99 172 180 237 313 238 150 235 172 185 190 184 169 163 198 148 159 186 161 160 224 192 215 223 222 291 271 128 233 131 243 289 260 287 288 282 271 256 172 168 159 152 151 153 163
195 192 193 189 198 203 185 162 156 148 145 148 157 176 180 210 220 209 212 192 40 79 52 142 132 140 217 299 308 222 130 202 184 123 178 148 203 193 191 204 214 124 146 138 246 84 216 234 267 212 316 163 186 220 106 86 99 244 174 50 107 215 150 225 189 174 235 294 305 206 209 191 188 243 282 277 296 352 351 17 100 99 114 133 144 163 173 178
195 198 190 187 196 192 180 168 167 159 162 164 170 192 202 191 215 196 224 115 151 140 135 70 70 147 205 192 329 194 246 119 204 133 235 214 231 195 205 197 188 185 169 189 158 187 54 265 291 345 53 174 190 122 184 149 198 205 108 200 213 114 126 85 21 71 118 42 250 152 281 279 302 292 241 255 330 292 24 34 99 133 142 149 167 174 180 180
211 188 197 192 200 180 178 171 166 169 178 182 178 206 205 230 193 121 194 178 176 130 142 150 219 171 176 205 197 190 216 74 188 143 228 134 286 201 186 227 185 198 214 149 267 191 154 235 305 103 204 321 205 210 101 20 143 99 181 219 92 97 108 151 225 339 91 220 271 153 230 271 104 271 352 66 197 253 265 207 180 150 153 178 186 185 186 187
211 205 202 199 192 174 175 172 165 170 186 203 208 208 204 220 193 163 158 110 104 160 163 196 246 158 207 174 205 174 208 181 187 173 204 183 243 178 182 183 200 194 205 218 194 254 125 287 281 319 106 297 349 86 10 357 24 155 194 203 138 237 225 281 99 242 191 242 281 267 249 254 191 234 72 234 214 230 228 201 186 196 192 198 191 194 192 174
257 270 242 214 175 165 174 172 178 171 184 211 197 226 221 232 185 202 184 168 158 157 198 205 196 214 155 185 178 171 167 190 162 191 149 221 214 194 183 168 215 203 201 186 206 211 97 193 290 337 128 301 28 133 197 209 332 33 78 124 50 102 175 142 201 178 120 251 77 285 71 252 188 215 184 205 209 211 197 190 216 207 196 191 192 187 186 190
208 290 262 152 154 172 166 173 180 187 193 205 193 225 202 214 198 229 241 167 188 177 215 202 194 157 186 200 162 166 211 193 169 194 189 212 192 262 179 194 175 195 199 191 202 133 216 141 249 230 303 105 187 184 201 177 177 149 125 191 167 24 257 114 350 154 177 183 202 270 295 264 248 206 183 202 202 204 189 201 209 204 203 199 192 187 190 194
125 285 275 170 171 161 159 177 207 189 192 200 212 216 200 208 194 223 223 237 277 346 182 206 179 200 169 135 230 186 169 178 190 184 197 224 184 221 208 179 175 171 143 180 209 185 176 189 194 135 156 216 240 239 212 193 197 186 175 191 183 149 146 171 248 53 143 145 237 143 260 244 261 167 205 201 204 199 201 197 202 204 193 194 198 199 193 191
149 232 255 168 165 160 163 195 192 202 208 185 197 198 211 130 49 200 232 234 177 253 10 148 212 193 168 198 175 177 162 188 190 193 220 201 209 209 231 177 170 148 149 180 195 201 160 120 105 187 203 198 213 242 312 230 151 187 176 216 185 197 173 173 207 229 359 239 114 180 319 273 229 203 234 239 253 227 209 197 208 193 185 196 202 198 194 196
182 226 134 266 189 168 194 195 189 197 204 222 225 241 353 213 205 175 193 209 223 182 201 211 199 191 227 180 173 177 173 190 181 205 186 209 225 200 203 175 145 156 146 102 64 262 106 122 149 265 316 316 318 306 60 56 94 290 288 183 155 204 196 207 191 181 198 167 172 278 253 266 302 326 283 257 250 275 292 222 213 180 190 201 198 185 187 189
204 221 265 298 190 201 179 210 202 207 212 222 214 218 209 211 185 179 203 201 203 173 203 190 348 218 209 139 149 187 179 200 219 204 226 195 227 167 153 172 163 163 165 201 170 190 158 230 147 138 16 330 340 333 268 20 87 213 204 205 202 166 197 165 93 136 279 211 158 154 246 254 268 316 320 8 308 251 232 223 188 191 192 199 195 190 185 185
130 165 203 195 204 226 249 192 199 195 206 202 191 212 208 217 217 214 197 207 207 219 180 226 206 148 212 172 194 189 189 199 190 218 201 193 213 31 299 166 195 174 191 202 150 165 183 164 157 195 195 182 190 198 201 197 209 178 81 139 189 197 182 150 234 181 237 176 155 216 244 255 281 316 332 330 326 261 268 223 212 199 185 196 194 181 180 179
172 239 173 197 179 232 258 9 3 197 202 190 203 217 206 214 217 214 206 221 204 206 208 75 62 138 184 164 193 199 210 214 180 188 179 215 204 305 271 285 183 188 161 149 150 157 173 175 196 205 202 216 216 77 35 78 60 192 208 182 203 202 202 204 226 213 218 146 198 227 235 281 280 265 268 268 239 223 223 202 198 202 201 198 185 180 182 185
297 217 161 201 153 217 245 255 258 169 205 182 206 174 207 216 206 205 200 229 209 205 205 181 164 173 210 190 200 210 205 206 184 129 200 186 248 209 306 120 72 28 96 106 159 108 98 201 217 218 225 222 136 159 192 165 183 206 178 205 194 197 195 198 209 225 106 219 255 231 149 241 248 231 242 232 250 255 244 223 216 213 193 180 182 183 172 169
218 251 204 226 214 189 206 241 233 236 231 178 217 170 206 209 206 208 185 228 215 204 206 202 207 209 193 193 187 200 185 204 188 214 172 182 111 250 107 355 163 202 140 150 170 149 162 217 216 171 239 234 169 125 163 168 189 190 197 200 197 204 197 204 220 218 153 212 239 228 171 228 245 222 222 203 207 214 210 208 205 184 161 163 160 169 181 188
245 349 217 306 212 206 199 200 198 220 234 186 218 200 204 209 213 208 194 196 216 211 200 215 215 214 207 199 191 205 191 182 224 216 169 175 172 140 144 27 278 129 155 132 178 189 134 232 189 183 235 238 229 175 173 172 188 197 216 213 208 201 206 208 220 220 214 232 242 248 227 234 235 223 214 206 213 221 248 74 110 154 179 172 172 179 179 179
268 214 268 12 287 287 241 193 183 194 224 192 207 207 207 209 216 210 219 188 198 215 195 221 227 215 212 206 203 211 211 210 201 191 195 161 194 191 191 183 139 52 203 169 167 244 161 225 139 171 223 246 228 176 171 174 170 227 233 225 220 212 209 208 217 226 223 239 244 244 258 261 235 180 220 216 170 81 100 172 193 187 167 171 173 175 181 189
119 108 203 60 282 232 196 174 181 198 209 191 202 211 209 217 225 206 212 201 203 200 196 218 224 207 213 213 213 223 225 219 217 208 186 168 188 205 160 229 153 155 170 152 152 158 178 253 79 138 206 254 171 173 188 191 204 236 252 239 215 151 202 216 219 220 198 225 236 244 251 255 240 195 144 78 130 156 184 194 189 186 179 167 174 182 187 196
88 298 106 297 259 242 218 203 186 183 218 194 191 207 203 218 223 191 236 235 227 220 204 213 219 201 204 205 214 223 225 227 230 150 157 203 259 93 175 132 157 154 166 185 140 159 189 148 155 173 197 244 157 168 182 146 183 280 247 239 193 198 211 216 222 219 213 215 221 223 236 240 234 157 163 185 174 185 192 192 194 180 185 184 182 185 195 200